DECAYED

CZ-6A DEB, 54940 (Decayed)

Orbit data source: Space-Track

CZ-6A DEB, 54940 was space debris in SSO originally from a launch on Fri, 11 Nov 2022 UTC launched from the Taiyaun Space Center, China (TSC). Debris objects in space refer to the collection of defunct objects orbiting the Earth. Examples of debris include non-operational satellites, rocket bodies, and fragments generated from explosions, collisions, or faulty payload assembly.

Not visible in the next 10 days
Identifier
54940, 2022-151SD
Orbit
Decayed
Country
Flag of CNCN / PRC
Related business
Manufacturer
SAST
Mission
Decayed spacecraft
Bus & Motor
Unknown
Mass
Unknown
Launch date (UTC)
2022-11-11 (4 years ago)
Launch vehicle
Unknown
Launch site
Taiyaun Space Center, China (TSC)
Object type
Payload
Rocket body
Debris
Shape & HBR
Unknown shape, 0.1 m
Radar Cross Section
Medium (>0.1 m² and <1 m²)

Expand to show TLE details & history
Last TLE update: 4 months ago

TLE from 4 months ago
0 CZ-6A DEB
1 54940U 22151SD  26123.01199150  .04759339  26608-1  16709-1 0  9990
2 54940  98.6149 221.7632 0026610 295.6936  64.1587 15.92023727185158
Epoch: 2026-05-03T00:17Z
TLE epoch observation values (Epoch: 2026-05-03T00:17:16.065Z)
Latitude
0.00001°
Longitude
-3.4754°
Altitude
292.064 km
Speed
7.737 km/s
True Right ascension
14h 47m 03s
True Declination
0° 00' 00"
Sunlit
Object was in full shadow at epoch
Visualization orbit readout
Latitude
Unknown
Longitude
Unknown
Altitude
Unknown
Speed
Unknown
Apparent Right ascension
Unknown
Apparent Declination
Unknown
Sunlit
N/A
Visualization observer readout
Local Sidereal Time
15:53:06
Azimuth
Unknown
Elevation
Unknown
Doppler factor
Unknown
Orbital elements
Apogee altitude
311.302 km
Perigee altitude
275.795 km
Semi-major axis
6,671.685 km
Eccentricity
0.00266
Inclination
98.6149°
RAAN
221.7632°
Arg. of periapsis
295.6936°
True anomaly
64.43353°
Mean anomaly
64.1587°
Eccentric anomaly
64.29608°
Mean motion
3.98281 °/min
Orbital period
90.39 mins
BSTAR
0.016709
Loading maneuver chart data...
Computing Atmospheric mass density...

Documentation

Showing up to 5 results
|